[[{"header":{"parameterUnit":"m.s-1","parameterCategory":1,"la1":30.2991,"la2":30.254,"lo1":-89.0895,"lo2":-89.0444,"dy":0.0017,"dx":0.0017,"nx":28,"ny":28,"refTime":"2024-12-02T03:00:00:Z","depth":0,"parameterNumber":2,"parameterNumberName":"U-component_of_WINDS"},"data":[0,0,0,0,0,0,0,0,0,0,0,0,0,0,0,0,0,0,0,0,0,0,0,0,0,0,0,0,0,0,0,0,0,0,0,0,0,0,0,0,0,0,0,0,0,0,0,0,0,0,0,0,0,0,0,0,0,0,-1.4363,-1.4364,0,-1.442,-1.442,-1.4421,-1.4355,-1.4353,-1.435,-1.4348,-1.4408,-1.4411,-1.4415,0,0,0,0,0,0,0,0,0,0,0,0,0,-1.42,-1.4203,-1.4363,-1.4364,-1.4365,-1.442,-1.442,-1.4421,-1.4355,-1.4352,-1.4349,-1.4347,-1.4406,-1.4411,-1.4416,0,0,0,0,0,0,0,0,0,0,0,0,0,-1.4265,-1.4205,-1.4363,-1.4339,-1.4337,-1.442,-1.442,-1.4421,-1.4356,-1.4352,-1.4349,-1.4345,-1.4405,-1.441,-1.4416,-1.4527,0,0,-1.4434,-1.4437,0,0,0,0,0,0,0,0,-1.4262,-1.4271,-1.4341,-1.434,-1.4339,-1.4376,-1.4385,-1.4457,-1.4357,-1.4349,-1.4348,-1.4343,-1.44,-1.4406,-1.4425,-1.4529,-1.4532,-1.4435,-1.4438,-1.4441,-1.4442,0,0,0,0,0,0,0,-1.4257,-1.4269,-1.4386,-1.4343,-1.4341,-1.4325,-1.433,-1.4398,-1.4395,-1.4349,-1.4345,-1.4352,-1.4399,-1.442,-1.4426,-1.4533,-1.4434,-1.444,-1.4443,-1.4445,-1.473,-1.4734,0,0,0,0,0,0,-1.4255,-1.4265,-1.4384,-1.4387,-1.429,-1.4331,-1.4337,-1.4368,-1.4394,-1.4394,-1.4355,-1.4349,-1.4411,-1.4419,-1.4428,-1.4559,-1.4441,-1.4446,-1.4449,-1.4726,-1.4731,-1.4736,0,0,0,0,0,0,-1.4252,-1.4267,-1.4382,-1.4325,-1.4339,-1.4338,-1.4374,-1.4371,-1.4392,-1.4398,-1.4398,-1.4377,-1.4409,-1.442,-1.4502,-1.4561,-1.4449,-1.4454,-1.4722,-1.4728,-1.4733,-1.4823,0,0,0,0,0,0,-1.4248,-1.4266,-1.4308,-1.4327,-1.4342,-1.4455,-1.4377,-1.4375,-1.4402,-1.4394,-1.4419,-1.4419,-1.4407,-1.4494,-1.4508,-1.4567,-1.4459,-1.4716,-1.4724,-1.4732,-1.4815,-1.4832,-1.4846,0,0,0,0,0,-1.4242,-1.4331,-1.431,-1.4325,-1.4394,-1.4459,-1.4468,-1.4451,-1.4407,-1.4449,-1.4453,-1.4418,-1.4551,-1.4503,-1.4518,-1.458,-1.4713,-1.4722,-1.4731,-1.4808,-1.4828,-1.4845,0,0,0,0,0,0,-1.432,-1.4333,-1.431,-1.4408,-1.4432,-1.4447,-1.45,-1.4473,-1.4511,-1.4503,-1.4481,-1.4487,-1.4575,-1.4585,-1.4531,-1.4688,-1.4625,-1.4638,-1.4678,-1.4697,-1.4712,-1.4709,-1.4463,0,0,0,0,0,-1.4348,-1.4399,-1.4408,-1.4493,-1.4507,-1.4502,-1.4529,-1.4514,-1.4539,-1.455,-1.456,-1.4586,-1.4634,-1.4666,-1.471,-1.4815,-1.482,-1.4865,-1.488,-1.4893,-1.4905,-1.4961,-1.4982,-1.4766,-1.4766,-1.4765,0,0,-1.4408,-1.4421,-1.4455,-1.4509,-1.4527,-1.4581,-1.4511,-1.4571,-1.4611,-1.4559,-1.4638,-1.4646,-1.4674,-1.4769,-1.4811,-1.478,-1.4965,-1.4904,-1.4914,-1.4919,-1.4973,-1.4993,-1.5012,-1.4772,-1.4771,-1.477,0,0,-1.4544,-1.4559,-1.4632,-1.4651,-1.4678,-1.4673,-1.4691,-1.471,-1.4713,-1.4791,-1.4754,-1.4801,-1.4883,-1.4905,-1.4926,-1.507,-1.5039,-1.5084,-1.5165,-1.5221,-1.5238,-1.5253,-1.5305,-1.5324,-1.5096,-1.5096,-1.5096,0,-1.4615,-1.4695,-1.4673,-1.4736,-1.4761,-1.4715,-1.4789,-1.4808,-1.4849,-1.4868,-1.4832,-1.4934,-1.4949,-1.5049,-1.5084,-1.5102,-1.5122,-1.5083,-1.5237,-1.5252,-1.5266,-1.5315,-1.5335,-1.5101,-1.5101,-1.51,-1.51,0,-1.4781,-1.4836,-1.4892,-1.4932,-1.4963,-1.5031,-1.502,-1.5054,-1.5036,-1.5036,-1.5116,-1.5133,-1.518,-1.5202,-1.5185,-1.5299,-1.5279,-1.524,-1.5177,-1.5292,-1.5339,-1.5357,-1.5109,-1.5107,-1.5106,-1.5104,0,0,-1.497,-1.4996,-1.5017,-1.5034,-1.506,-1.5103,-1.5168,-1.5213,-1.5244,-1.5273,-1.5328,-1.5398,-1.5363,-1.5387,-1.5372,-1.5421,-1.5534,-1.5376,-1.5377,-1.5406,-1.5662,-1.5692,-1.5714,-1.5513,-1.5517,-1.552,-1.566,0,-1.5108,-1.5222,-1.5204,-1.5314,-1.5366,-1.5322,-1.5379,-1.5401,-1.5402,-1.5446,-1.5447,-1.5498,-1.5446,-1.5461,-1.5507,-1.5511,-1.5586,-1.55,-1.5566,-1.5568,-1.5562,-1.5738,-1.577,-1.5902,-1.5678,-1.5681,-1.5683,0,-1.5284,-1.5319,-1.5435,-1.5452,-1.5473,-1.5525,-1.5565,-1.5607,-1.5631,-1.5628,-1.5655,-1.5631,-1.5697,-1.5631,-1.5722,-1.5664,-1.569,-1.5695,-1.57,-1.5707,-1.5634,-1.5752,-1.5944,-1.5964,-1.5711,-1.5709,-1.5707,0,-1.5413,-1.5488,-1.5567,-1.5583,-1.5605,-1.5643,-1.5654,-1.5674,-1.5702,-1.5736,-1.5755,-1.5796,-1.582,-1.5853,-1.5841,-1.5794,-1.5935,-1.5868,-1.5935,-1.5936,-1.5969,-1.5968,-1.617,-1.5983,-1.5982,-1.5982,-1.5981,0,-1.557,-1.5643,-1.5625,-1.5674,-1.5754,-1.5732,-1.5812,-1.5818,-1.5836,-1.5885,-1.5849,-1.5897,-1.5876,-1.5922,-1.5913,-1.599,-1.6001,-1.6001,-1.5998,-1.6006,-1.6006,-1.6023,-1.6015,-1.5987,-1.5986,-1.5985,-1.5984,0,-1.5728,-1.5719,-1.5802,-1.5815,-1.582,-1.5879,-1.589,-1.5936,-1.5933,-1.5996,-1.601,-1.6006,-1.6058,-1.6048,-1.6106,-1.61,-1.6197,-1.6182,-1.6189,-1.6186,-1.6255,-1.6249,-1.6477,-1.6506,-1.6299,-1.6301,-1.6302,0,-1.5829,-1.5884,-1.5903,-1.5933,-1.5947,-1.5996,-1.6024,-1.6004,-1.6035,-1.6066,-1.6109,-1.6157,-1.6195,-1.6281,-1.6283,-1.6327,-1.6314,-1.639,-1.632,-1.6326,-1.6317,-1.6314,-1.632,-1.6405,-1.6408,-1.6409,-1.6411,0,-1.6012,-1.6004,-1.6046,-1.6086,-1.6121,-1.6152,-1.6179,-1.6206,-1.6188,-1.6225,-1.6277,-1.6307,-1.6365,-1.6414,-1.6455,-1.6466,-1.6437,-1.6433,-1.6451,-1.646,-1.6463,-1.6464,-1.6229,-1.6428,-1.6426,-1.6425,-1.6424,-1.6424,-1.6146,-1.6192,-1.6213,-1.6261,-1.6279,-1.6305,-1.6349,-1.6351,-1.6394,-1.644,-1.6425,-1.6485,-1.6507,-1.6558,-1.6574,-1.6621,-1.6593,-1.6619,-1.6626,-1.6633,-1.6642,-1.6453,-1.6628,-1.6628,-1.6627,-1.6627,-1.6626,0,-1.6327,-1.6338,-1.6382,-1.6421,-1.6458,-1.6425,-1.6454,-1.6488,-1.6541,-1.6563,-1.6601,-1.6661,-1.6708,-1.6714,-1.6759,-1.6795,-1.6783,-1.6808,-1.6806,-1.6809,-1.6664,-1.6645,-1.6817,-1.6817,-1.6817,-1.6817,-1.6817,-1.6817,-1.6426,-1.6504,-1.6499,-1.6585,-1.6595,-1.6653,-1.6672,-1.6696,-1.6714,-1.6783,-1.6822,-1.6824,-1.6841,-1.6886,-1.6927,-1.6928,-1.6947,-1.6977,-1.6973,-1.6838,-1.6819,-1.6801,-1.6783,-1.6981,-1.6981,-1.7114,-1.7115,-1.7116]},{"header":{"parameterUnit":"m.s-1","parameterCategory":1,"la1":30.2991,"la2":30.254,"lo1":-89.0895,"lo2":-89.0444,"dy":0.0017,"dx":0.0017,"nx":28,"ny":28,"refTime":"2024-12-02T03:00:00:Z","depth":0,"parameterNumber":3,"parameterNumberName":"V-component_of_WINDS"},"data":[0,0,0,0,0,0,0,0,0,0,0,0,0,0,0,0,0,0,0,0,0,0,0,0,0,0,0,0,0,0,0,0,0,0,0,0,0,0,0,0,0,0,0,0,0,0,0,0,0,0,0,0,0,0,0,0,0,0,-4.4271,-4.4272,0,-4.4331,-4.4332,-4.4333,-4.4259,-4.4257,-4.4254,-4.4251,-4.4309,-4.4313,-4.4317,0,0,0,0,0,0,0,0,0,0,0,0,0,-4.4088,-4.4092,-4.4271,-4.4272,-4.4273,-4.4331,-4.4332,-4.4333,-4.426,-4.4256,-4.4253,-4.425,-4.4308,-4.4312,-4.4317,0,0,0,0,0,0,0,0,0,0,0,0,0,-4.416,-4.4093,-4.4271,-4.4243,-4.4241,-4.4331,-4.4332,-4.4333,-4.426,-4.4256,-4.4252,-4.4249,-4.4306,-4.4312,-4.4318,-4.4436,0,0,-4.4336,-4.4339,0,0,0,0,0,0,0,0,-4.4156,-4.4167,-4.4247,-4.4245,-4.4243,-4.4284,-4.4288,-4.4367,-4.4261,-4.4253,-4.4251,-4.4247,-4.4304,-4.431,-4.433,-4.4439,-4.4441,-4.4337,-4.4341,-4.4343,-4.4345,0,0,0,0,0,0,0,-4.4151,-4.4164,-4.4295,-4.4248,-4.4246,-4.4226,-4.4232,-4.4303,-4.43,-4.4253,-4.4248,-4.4257,-4.4302,-4.4324,-4.433,-4.4442,-4.4337,-4.4342,-4.4346,-4.4348,-4.465,-4.4654,0,0,0,0,0,0,-4.415,-4.416,-4.4293,-4.4296,-4.4189,-4.4233,-4.4239,-4.4275,-4.4299,-4.4299,-4.426,-4.4253,-4.4316,-4.4323,-4.4332,-4.4471,-4.4343,-4.4349,-4.4352,-4.4646,-4.4651,-4.4656,0,0,0,0,0,0,-4.4146,-4.4162,-4.429,-4.4227,-4.4242,-4.424,-4.4281,-4.4278,-4.43,-4.4304,-4.4303,-4.4284,-4.4313,-4.4324,-4.4411,-4.4472,-4.4352,-4.4357,-4.464,-4.4647,-4.4653,-4.4752,0,0,0,0,0,0,-4.4141,-4.4162,-4.4208,-4.4229,-4.4245,-4.437,-4.4285,-4.4282,-4.4311,-4.4303,-4.4326,-4.4326,-4.431,-4.4402,-4.4417,-4.4479,-4.4362,-4.4635,-4.4643,-4.4651,-4.4743,-4.4761,-4.4776,0,0,0,0,0,-4.4135,-4.4233,-4.4211,-4.4227,-4.4303,-4.4374,-4.4383,-4.4365,-4.4317,-4.4362,-4.4364,-4.4325,-4.4463,-4.4412,-4.4428,-4.4492,-4.4631,-4.4641,-4.4651,-4.4735,-4.4757,-4.4776,0,0,0,0,0,0,-4.4218,-4.4235,-4.4211,-4.4318,-4.4345,-4.4361,-4.4418,-4.4388,-4.4429,-4.4419,-4.4393,-4.4398,-4.4491,-4.45,-4.4442,-4.4607,-4.4539,-4.4552,-4.4598,-4.4619,-4.4635,-4.4631,-4.4367,0,0,0,0,0,-4.4249,-4.4306,-4.4317,-4.4411,-4.4426,-4.442,-4.445,-4.4433,-4.4459,-4.447,-4.4479,-4.4505,-4.4554,-4.4587,-4.4632,-4.4744,-4.4747,-4.4796,-4.4812,-4.4826,-4.4838,-4.4896,-4.4917,-4.4688,-4.4688,-4.4688,0,0,-4.4313,-4.4329,-4.4367,-4.4428,-4.4447,-4.4505,-4.443,-4.4495,-4.4537,-4.4479,-4.4563,-4.457,-4.4597,-4.4697,-4.4741,-4.4707,-4.4902,-4.4838,-4.4849,-4.4854,-4.4908,-4.493,-4.4949,-4.4695,-4.4693,-4.4692,0,0,-4.446,-4.4479,-4.4558,-4.4579,-4.4609,-4.4604,-4.4623,-4.4644,-4.4647,-4.473,-4.4688,-4.4737,-4.4822,-4.4843,-4.4865,-4.5018,-4.4983,-4.5034,-4.512,-4.5177,-4.5195,-4.5211,-4.5265,-4.5285,-4.5046,-4.5046,-4.5046,0,-4.4535,-4.4623,-4.4602,-4.4671,-4.4698,-4.4649,-4.4729,-4.4749,-4.4792,-4.4811,-4.4773,-4.4879,-4.4893,-4.4997,-4.5034,-4.5054,-4.5073,-4.5031,-4.5195,-4.521,-4.5225,-4.5276,-4.5296,-4.5052,-4.5051,-4.505,-4.505,0,-4.4714,-4.4775,-4.4835,-4.4879,-4.4913,-4.4987,-4.4976,-4.5012,-4.4992,-4.4991,-4.5076,-4.5092,-4.5139,-4.5162,-4.5143,-4.5263,-4.5241,-4.5199,-4.513,-4.5253,-4.53,-4.532,-4.506,-4.5058,-4.5056,-4.5055,0,0,-4.4915,-4.4946,-4.4969,-4.4988,-4.5017,-4.5063,-4.5133,-4.5181,-4.5212,-4.5243,-4.53,-4.5373,-4.5335,-4.5359,-4.5342,-4.5392,-4.5511,-4.5344,-4.5344,-4.5374,-4.5643,-4.5673,-4.5697,-4.5488,-4.5492,-4.5495,-4.564,0,-4.5061,-4.5185,-4.5168,-4.5286,-4.5341,-4.5295,-4.5356,-4.538,-4.538,-4.5426,-4.5426,-4.5478,-4.5424,-4.5438,-4.5486,-4.5487,-4.5565,-4.5476,-4.554,-4.5542,-4.5534,-4.5721,-4.5755,-4.5891,-4.5659,-4.5662,-4.5664,0,-4.5249,-4.5288,-4.5412,-4.5432,-4.5454,-4.5509,-4.5551,-4.5596,-4.5621,-4.5617,-4.5645,-4.5618,-4.5686,-4.5616,-4.5709,-4.565,-4.5674,-4.5679,-4.5683,-4.5688,-4.5611,-4.5731,-4.5934,-4.5954,-4.5693,-4.5691,-4.5689,0,-4.5383,-4.5465,-4.555,-4.5568,-4.5593,-4.5633,-4.5645,-4.5666,-4.5695,-4.5731,-4.5749,-4.5792,-4.5815,-4.5848,-4.5833,-4.5784,-4.5929,-4.5858,-4.5926,-4.5927,-4.5959,-4.5957,-4.6168,-4.5976,-4.5976,-4.5975,-4.5975,0,-4.5548,-4.5625,-4.561,-4.5662,-4.5747,-4.5726,-4.581,-4.5816,-4.5835,-4.5886,-4.5848,-4.5897,-4.5874,-4.592,-4.5908,-4.5986,-4.5997,-4.5995,-4.5991,-4.5999,-4.5999,-4.6014,-4.6004,-4.5981,-4.5979,-4.5978,-4.5977,0,-4.5711,-4.5705,-4.5794,-4.581,-4.5816,-4.5878,-4.5891,-4.5939,-4.5936,-4.6001,-4.6015,-4.6011,-4.6063,-4.6051,-4.6108,-4.61,-4.6198,-4.6183,-4.6191,-4.6187,-4.6256,-4.6249,-4.6484,-4.6513,-4.6303,-4.6305,-4.6306,0,-4.5817,-4.5875,-4.5899,-4.5931,-4.5946,-4.5998,-4.6028,-4.6009,-4.6041,-4.6073,-4.6117,-4.6166,-4.6205,-4.629,-4.6291,-4.6334,-4.6319,-4.6398,-4.6325,-4.633,-4.6319,-4.6315,-4.6321,-4.6412,-4.6415,-4.6417,-4.6418,0,-4.6005,-4.5999,-4.6044,-4.6088,-4.6125,-4.6158,-4.6188,-4.6216,-4.6199,-4.6236,-4.629,-4.632,-4.6379,-4.6428,-4.6467,-4.6477,-4.6445,-4.6441,-4.6459,-4.6467,-4.6469,-4.6468,-4.623,-4.6436,-4.6434,-4.6433,-4.6432,-4.6431,-4.6142,-4.6192,-4.6216,-4.6267,-4.6287,-4.6316,-4.6361,-4.6364,-4.6409,-4.6456,-4.6442,-4.6503,-4.6524,-4.6574,-4.659,-4.6636,-4.6606,-4.6632,-4.6639,-4.6645,-4.6654,-4.6463,-4.6643,-4.6642,-4.6642,-4.6641,-4.6641,0,-4.6328,-4.6341,-4.6388,-4.6431,-4.6471,-4.6438,-4.6469,-4.6504,-4.6558,-4.6582,-4.6621,-4.6682,-4.6729,-4.6733,-4.6777,-4.6813,-4.6799,-4.6825,-4.6822,-4.6825,-4.6678,-4.6658,-4.6836,-4.6836,-4.6836,-4.6835,-4.6835,-4.6835,-4.6429,-4.6511,-4.6507,-4.6598,-4.661,-4.667,-4.669,-4.6716,-4.6734,-4.6805,-4.6844,-4.6847,-4.6862,-4.6907,-4.6948,-4.6948,-4.6965,-4.6997,-4.6991,-4.6854,-4.6835,-4.6817,-4.6797,-4.7001,-4.7001,-4.7133,-4.7135,-4.7135]}]]